Eagle River, WI

2:23 AM CDT on July 21, 2017 (GMT -0500)
Eagle River Union

Weather History for KEGV - May, 2012

Change the Weather History Date:

Wednesday, May 23, 2012

  Actual Average Record
Temperature  
Mean Temperature 60 °F -  
Max Temperature 71 °F 69 °F 82 °F (2016)
Min Temperature 50 °F 46 °F 30 °F (2003)
Degree Days  
Heating Degree Days 4    
Growing Degree Days 10 (Base 50)    
Moisture  
Dew Point 41 °F    
Average Humidity 48    
Maximum Humidity 62    
Minimum Humidity 31    
Precipitation  
Precipitation 0.00 in - - ()
Sea Level Pressure  
Sea Level Pressure 29.75 in    
Wind  
Wind Speed 8 mph (South)    
Max Wind Speed 17 mph    
Max Gust Speed 26 mph    
Visibility 10 miles    
Events      
Averages and records for this station are not official NWS values.
T = Trace of Precipitation, MM = Missing Value Source: NWS Daily Summary

Daily Weather History Graph

Daily Weather History Graph

Search for Another Location

Airport or City:

Trip Planner

Search our weather history database for the weather conditions in past years. The results will help you decide how hot, cold, wet, or windy it might be!

Date:

Astronomy

May. 23, 2012 Rise Set
Actual Time 5:16 AM CDT 8:32 PM CDT
Civil Twilight 4:40 AM CDT 9:08 PM CDT
Nautical Twilight 3:53 AM CDT 9:55 PM CDT
Astronomical Twilight 2:54 AM CDT 10:55 PM CDT
Moon 7:18 AM CDT (5/23) 10:52 PM CDT (5/23)
Length of Visible Light 16h 28m
Length of Day
15h 15m
Waxing Crescent, 7% of the Moon is Illuminated
May 23
Waxing Crescent
May 28
First Quarter
Jun 4
Full
Jun 11
Last Quarter
Jun 19
New

Hourly Weather History & Observations

Time (CDT) Temp. Dew Point Humidity Pressure Visibility Wind Dir Wind Speed Gust Speed Precip Events Conditions
12:15 AM 53.6 °F 41.0 °F 62% 29.86 in 10.0 mi SSE 8.1 mph - N/A   Clear
12:35 AM 53.6 °F 39.2 °F 58% 29.87 in 10.0 mi South 8.1 mph - N/A   Clear
12:55 AM 51.8 °F 39.2 °F 62% 29.86 in 10.0 mi South 6.9 mph - N/A   Clear
1:15 AM 51.8 °F 39.2 °F 62% 29.86 in 10.0 mi South 5.8 mph - N/A   Clear
1:35 AM 51.8 °F 39.2 °F 62% 29.86 in 10.0 mi South 4.6 mph - N/A   Clear
1:55 AM 51.8 °F 37.4 °F 58% 29.85 in 10.0 mi SSE 5.8 mph - N/A   Clear
2:15 AM 50.0 °F 37.4 °F 62% 29.84 in 10.0 mi SSE 4.6 mph - N/A   Clear
2:35 AM 50.0 °F 37.4 °F 62% 29.84 in 10.0 mi South 3.5 mph - N/A   Clear
2:55 AM 50.0 °F 37.4 °F 62% 29.84 in 10.0 mi South 3.5 mph - N/A   Clear
3:15 AM 50.0 °F 37.4 °F 62% 29.85 in 10.0 mi South 4.6 mph - N/A   Clear
3:35 AM 50.0 °F 37.4 °F 62% 29.86 in 10.0 mi South 4.6 mph - N/A   Clear
3:55 AM 50.0 °F 37.4 °F 62% 29.85 in 10.0 mi SSE 4.6 mph - N/A   Clear
4:15 AM 50.0 °F 35.6 °F 58% 29.85 in 10.0 mi SSE 5.8 mph - N/A   Clear
4:35 AM 50.0 °F 37.4 °F 62% 29.84 in 10.0 mi South 3.5 mph - N/A   Clear
4:55 AM 50.0 °F 37.4 °F 62% 29.83 in 10.0 mi SSE 5.8 mph - N/A   Clear
5:15 AM 50.0 °F 37.4 °F 62% 29.82 in 10.0 mi South 5.8 mph - N/A   Clear
5:35 AM 50.0 °F 37.4 °F 62% 29.82 in 10.0 mi South 3.5 mph - N/A   Clear
5:55 AM 50.0 °F 37.4 °F 62% 29.83 in 10.0 mi South 5.8 mph - N/A   Clear
6:15 AM 50.0 °F 37.4 °F 62% 29.84 in 10.0 mi SSW 3.5 mph - N/A   Clear
6:35 AM 51.8 °F 37.4 °F 58% 29.84 in 10.0 mi South 6.9 mph - N/A   Clear
6:55 AM 53.6 °F 37.4 °F 54% 29.84 in 10.0 mi SSE 6.9 mph - N/A   Clear
7:15 AM 53.6 °F 39.2 °F 58% 29.84 in 10.0 mi South 4.6 mph - N/A   Clear
7:35 AM 55.4 °F 39.2 °F 54% 29.84 in 10.0 mi South 4.6 mph - N/A   Clear
7:55 AM 55.4 °F 39.2 °F 54% 29.83 in 10.0 mi South 6.9 mph - N/A   Clear
8:35 AM 59.0 °F 41.0 °F 51% 29.83 in 10.0 mi SSW 5.8 mph - N/A   Clear
8:55 AM 59.0 °F 41.0 °F 51% 29.83 in 10.0 mi South 6.9 mph - N/A   Clear
9:35 AM 64.4 °F 42.8 °F 45% 29.81 in 10.0 mi SSW 12.7 mph 18.4 mph N/A   Clear
9:55 AM 68.0 °F 42.8 °F 40% 29.80 in 10.0 mi SSW 9.2 mph 16.1 mph N/A   Clear
10:15 AM 68.0 °F 42.8 °F 40% 29.80 in 10.0 mi SSW 12.7 mph 17.3 mph N/A   Clear
10:35 AM 68.0 °F 42.8 °F 40% 29.79 in 10.0 mi SSW 10.4 mph 17.3 mph N/A   Clear
11:15 AM 68.0 °F 42.8 °F 40% 29.79 in 10.0 mi South 10.4 mph 17.3 mph N/A   Clear
11:35 AM 68.0 °F 44.6 °F 43% 29.79 in 10.0 mi South 11.5 mph 17.3 mph N/A   Clear
11:55 AM 68.0 °F 44.6 °F 43% 29.79 in 10.0 mi SSW 6.9 mph - N/A   Clear
12:15 PM 68.0 °F 44.6 °F 43% 29.78 in 10.0 mi South 10.4 mph 20.7 mph N/A   Clear
12:35 PM 69.8 °F 44.6 °F 40% 29.77 in 10.0 mi South 13.8 mph 21.9 mph N/A   Clear
12:55 PM 69.8 °F 44.6 °F 40% 29.76 in 10.0 mi South 11.5 mph 18.4 mph N/A   Clear
1:15 PM 69.8 °F 44.6 °F 40% 29.75 in 10.0 mi South 10.4 mph 17.3 mph N/A   Clear
1:35 PM 68.0 °F 44.6 °F 43% 29.74 in 10.0 mi South 13.8 mph 21.9 mph N/A   Clear
1:55 PM 68.0 °F 44.6 °F 43% 29.72 in 10.0 mi South 16.1 mph 25.3 mph N/A   Clear
2:15 PM 68.0 °F 44.6 °F 43% 29.71 in 10.0 mi SSE 15.0 mph 25.3 mph N/A   Clear
2:35 PM 69.8 °F 44.6 °F 40% 29.71 in 10.0 mi South 15.0 mph 21.9 mph N/A   Clear
2:55 PM 69.8 °F 44.6 °F 40% 29.70 in 10.0 mi SSE 13.8 mph 26.5 mph N/A   Clear
3:15 PM 69.8 °F 42.8 °F 38% 29.69 in 10.0 mi SSE 17.3 mph 25.3 mph N/A   Clear
3:35 PM 69.8 °F 41.0 °F 35% 29.69 in 10.0 mi South 13.8 mph 25.3 mph N/A   Clear
3:55 PM 69.8 °F 41.0 °F 35% 29.69 in 10.0 mi South 10.4 mph 19.6 mph N/A   Clear
4:15 PM 69.8 °F 41.0 °F 35% 29.68 in 10.0 mi SSE 15.0 mph 20.7 mph N/A   Clear
4:35 PM 69.8 °F 41.0 °F 35% 29.68 in 10.0 mi South 13.8 mph 21.9 mph N/A   Clear
4:55 PM 69.8 °F 41.0 °F 35% 29.67 in 10.0 mi South 17.3 mph 25.3 mph N/A   Clear
5:15 PM 69.8 °F 42.8 °F 38% 29.67 in 10.0 mi South 9.2 mph 23.0 mph N/A   Clear
5:35 PM 71.6 °F 41.0 °F 33% 29.67 in 10.0 mi South 13.8 mph 19.6 mph N/A   Clear
5:55 PM 71.6 °F 41.0 °F 33% 29.65 in 10.0 mi SSE 12.7 mph 23.0 mph N/A   Clear
6:15 PM 71.6 °F 39.2 °F 31% 29.65 in 10.0 mi South 11.5 mph 20.7 mph N/A   Clear
6:35 PM 71.6 °F 39.2 °F 31% 29.64 in 10.0 mi South 16.1 mph 21.9 mph N/A   Clear
6:55 PM 71.6 °F 39.2 °F 31% 29.63 in 10.0 mi South 13.8 mph 24.2 mph N/A   Clear
7:15 PM 69.8 °F 41.0 °F 35% 29.64 in 10.0 mi South 11.5 mph 17.3 mph N/A   Clear
7:35 PM 69.8 °F 41.0 °F 35% 29.64 in 10.0 mi South 10.4 mph 18.4 mph N/A   Clear
7:55 PM 68.0 °F 42.8 °F 40% 29.64 in 10.0 mi South 8.1 mph - N/A   Clear
8:15 PM 66.2 °F 42.8 °F 43% 29.64 in 10.0 mi SSE 5.8 mph - N/A   Clear
8:35 PM 64.4 °F 42.8 °F 45% 29.64 in 10.0 mi South 8.1 mph - N/A   Clear
9:15 PM 64.4 °F 42.8 °F 45% 29.62 in 10.0 mi SSE 10.4 mph - N/A   Clear
9:35 PM 62.6 °F 44.6 °F 52% 29.62 in 10.0 mi SSE 9.2 mph - N/A   Clear
9:55 PM 62.6 °F 44.6 °F 52% 29.62 in 10.0 mi SSE 9.2 mph 16.1 mph N/A   Clear
10:15 PM 62.6 °F 42.8 °F 48% 29.62 in 10.0 mi SSE 11.5 mph 17.3 mph N/A   Clear
10:35 PM 60.8 °F 42.8 °F 52% 29.64 in 10.0 mi SSE 8.1 mph 17.3 mph N/A   Clear
11:15 PM 60.8 °F 41.0 °F 48% 29.64 in 10.0 mi SSE 8.1 mph 18.4 mph N/A   Clear
11:35 PM 60.8 °F 41.0 °F 48% 29.64 in 10.0 mi South 6.9 mph - N/A   Clear
11:55 PM 60.8 °F 41.0 °F 48% 29.64 in 10.0 mi SSE 9.2 mph 17.3 mph N/A   Clear